Location: Wells
(51.2093°N, 2.6446°W)
Time: 07:26:30
(UTC+01:00)

PCSat - Pass Details

Date: 15 March 2026
Orbit: 780 x 790 km, 67.1° (Epoch: 13 April)

Event Time Altitude Azimuth Distance (km) Brightness Sun altitude
Rises 05:35:16 0° 322° (NW) 3,297 12.5 -8.6°
Reaches altitude 10° 05:37:55 10° 332° (NNW) 2,365 11.8 -8.2°
Maximum altitude 05:42:50 34° 37° (NE) 1,285 11.2 -7.4°
Drops below altitude 10° 05:47:44 10° 102° (ESE) 2,355 13.5 -6.6°
Sets 05:50:22 0° 112° (ESE) 3,280 14.1 -6.2°
